Location: Unspecified
(0.0000°N, 0.0000°E)
Time: 10:58:41
(UTC+00:00)

ITAMSAT 1 - Pass Details

Date: 03 October 2021
Orbit: 783 x 797 km, 98.9° (Epoch: 15 October)

Event Time Altitude Azimuth Distance (km) Brightness Sun altitude
Rises 18:17:36 0° 152° (SSE) 3,285 10.6 -7.2°
Reaches altitude 10° 18:20:06 10° 143° (SE) 2,352 9.8 -7.8°
Maximum altitude 18:24:50 36° 77° (ENE) 1,227 8.2 -9.0°
Drops below altitude 10° 18:29:31 10° 12° (NNE) 2,335 10.0 -10.1°
Sets 18:31:59 0° 3° (N) 3,259 10.8 -10.7°
